EW6140 Weather Reports


time (UTC)temp
C
wind
direction
speed
KPH
gust
KPH
rain 1hr
cm
rain 24hr
cm
rain mn
cm
humidity
%
barometer
mb
20260504202557 20 0 0.0 4.8 0.00 0.00 0.00 37 1006.4
20260504202059 20 0 0.0 4.8 0.00 0.00 0.00 36 1006.4
20260504201612 20 0 0.0 4.8 0.00 0.00 0.00 36 1006.4
20260504201059 20 0 0.0 12.9 0.00 0.00 0.00 36 1006.4
20260504200558 20 244 0.0 12.9 0.00 0.00 0.00 38 1006.5
20260504200059 20 0 0.0 8.0 0.00 0.00 0.00 42 1006.6
20260504195559 20 0 0.0 6.4 0.00 0.00 0.00 38 1006.7
20260504195059 19 0 0.0 6.4 0.00 0.00 0.00 38 1006.7
20260504194557 19 0 0.0 1.6 0.00 0.00 0.00 39 1006.8
20260504194059 19 0 0.0 8.0 0.00 0.00 0.00 39 1006.9
20260504193557 20 0 0.0 8.0 0.00 0.00 0.00 38 1006.9
20260504193109 20 0 1.6 8.0 0.00 0.00 0.00 37 1006.9
20260504192558 21 0 0.0 4.8 0.00 0.00 0.00 39 1006.9
20260504192057 21 0 0.0 9.7 0.00 0.00 0.00 38 1006.9
20260504191611 20 0 0.0 9.7 0.00 0.00 0.00 38 1006.9
20260504191058 20 148 0.0 8.0 0.00 0.00 0.00 41 1007.0
20260504190559 20 0 0.0 11.3 0.00 0.00 0.00 37 1007.1
20260504190108 21 134 0.0 11.3 0.00 0.00 0.00 37 1007.3
20260504185558 20 94 0.0 8.0 0.00 0.00 0.00 37 1007.1
20260504185058 20 173 0.0 6.4 0.00 0.00 0.00 40 1007.2
20260504184557 20 0 0.0 8.0 0.00 0.00 0.00 41 1007.1
20260504184055 19 0 1.6 8.0 0.00 0.00 0.00 40 1007.2
20260504183602 20 0 0.0 9.7 0.00 0.00 0.00 38 1007.2
20260504183058 20 0 0.0 9.7 0.00 0.00 0.00 42 1007.2
20260504182558 20 252 0.0 9.7 0.00 0.00 0.00 41 1007.2
20260504182058 20 0 1.6 14.5 0.00 0.00 0.00 41 1007.2
20260504181603 19 253 1.6 14.5 0.00 0.00 0.00 42 1007.4
20260504181058 19 202 1.6 14.5 0.00 0.00 0.00 40 1007.4
20260504180557 20 173 0.0 12.9 0.00 0.00 0.00 41 1007.3
20260504180140 19 0 1.6 12.9 0.00 0.00 0.00 44 1007.2
20260504175559 19 0 0.0 3.2 0.00 0.00 0.00 44 1007.3
20260504175059 19 0 0.0 4.8 0.00 0.00 0.00 43 1007.3
20260504174609 18 0 0.0 4.8 0.00 0.00 0.00 46 1007.4
20260504174059 18 0 0.0 8.0 0.00 0.00 0.00 44 1007.4
20260504173603 17 141 0.0 8.0 0.00 0.00 0.00 45 1007.4
20260504173059 17 0 0.0 6.4 0.00 0.00 0.00 44 1007.5
20260504172558 18 0 0.0 17.7 0.00 0.00 0.00 45 1007.5
20260504172058 18 182 1.6 17.7 0.00 0.00 0.00 44 1007.4
20260504171558 18 0 0.0 8.0 0.00 0.00 0.00 44 1007.5
20260504171059 18 238 0.0 6.4 0.00 0.00 0.00 44 1007.5
20260504170558 18 0 0.0 12.9 0.00 0.00 0.00 43 1007.6
20260504151101 15 0 0.0 12.9 0.00 0.00 0.00 50 1008.7
20260504150558 14 0 0.0 8.0 0.00 0.00 0.00 51 1008.7
20260504141059 12 0 0.0 11.3 0.00 0.00 0.00 52 1008.8
20260504140558 12 0 0.0 14.5 0.00 0.00 0.00 52 1008.8
20260504140300 12 0 1.6 14.5 0.00 0.00 0.00 51 1008.8
20260504130558 10 173 0.0 11.3 0.00 0.00 0.00 56 1009.2
20260504120244 -17 0.0 0.0 0.00 0.00 0.00 1009.4
20260504110559 -17 0.0 0.0 0.00 0.00 0.00 1009.4
20260504100557 -17 0.0 0.0 0.00 0.00 0.00 1009.3
20260504090121 -17 0.0 0.0 0.00 0.00 0.00 1009.4
20260504081556 -17 0.0 0.0 0.00 0.00 0.00 1009.5
20260504081054 -17 0.0 0.0 0.00 0.00 0.00 1009.5
20260504080554 -17 0.0 0.0 0.00 0.00 0.00 1009.4
20260504070226 -17 0.0 0.0 0.00 0.00 0.00 1009.5
20260504050553 -17 0.0 0.0 0.00 0.00 0.00 1009.8
20260504045554 -17 0.0 0.0 0.00 0.00 0.00 1009.8
20260504045057 -17 0.0 0.0 0.00 0.00 0.00 1009.7
20260504044557 -17 0.0 0.0 0.00 0.00 0.00 1009.8
20260504044054 -17 0.0 0.0 0.00 0.00 0.00 1009.7
20260504043557 -17 0.0 0.0 0.00 0.00 0.00 1009.8
20260504043103 -17 0.0 0.0 0.00 0.00 0.00 1009.9
20260504042554 -17 0.0 0.0 0.00 0.00 0.00 1009.9
20260504042053 -17 0.0 0.0 0.00 0.00 0.00 1009.9
20260504041557 -17 0.0 0.0 0.00 0.00 0.00 1009.9
20260504041053 -17 0.0 0.0 0.00 0.00 0.00 1009.9
20260504040557 -17 0.0 0.0 0.00 0.00 0.00 1010.0
20260504040131 -17 0.0 0.0 0.00 0.00 0.00 1010.0
20260504035555 -17 0.0 0.0 0.00 0.00 0.00 1010.0
20260504035100 -17 0.0 0.0 0.00 0.00 0.00 1009.9
20260504034602 -17 0.0 0.0 0.00 0.00 0.00 1010.0
20260504034054 -17 0.0 0.0 0.00 0.00 0.00 1009.9
20260504033554 -17 0.0 0.0 0.00 0.00 0.00 1010.0
20260504033056 -17 0.0 0.0 0.00 0.00 0.00 1010.1
20260504032554 -17 0.0 0.0 0.00 0.00 0.00 1010.1
20260504032057 -17 0.0 0.0 0.00 0.00 0.00 1010.2
20260504031606 -17 0.0 0.0 0.00 0.00 0.00 1010.3
20260504031100 -17 0.0 0.0 0.00 0.00 0.00 1010.3
20260504030557 -17 0.0 0.0 0.00 0.00 0.00 1010.4
20260504030058 -17 0.0 0.0 0.00 0.00 0.00 1010.4
20260504025600 -17 0.0 0.0 0.00 0.00 0.00 1010.4
20260504025059 -17 0.0 0.0 0.00 0.00 0.00 1010.5
20260504024603 -17 0.0 0.0 0.00 0.00 0.00 1010.6
20260504024058 -17 0.0 0.0 0.00 0.00 0.00 1010.7
20260504023558 -17 0.0 0.0 0.00 0.00 0.00 1010.8
20260504023057 -17 0.0 0.0 0.00 0.00 0.00 1011.0
20260504022558 -17 0.0 0.0 0.00 0.00 0.00 1010.8
20260504022058 -17 0.0 0.0 0.00 0.00 0.00 1010.9
20260504021556 -17 0.0 0.0 0.00 0.00 0.00 1010.9
20260504021101 -17 0.0 0.0 0.00 0.00 0.00 1010.8
20260504020600 -17 0.0 0.0 0.00 0.00 0.00 1010.7
20260504020111 -17 0.0 0.0 0.00 0.00 0.00 1010.8
20260504015601 -17 0.0 0.0 0.00 0.00 0.00 1010.7
20260504015057 -17 0.0 0.0 0.00 0.00 0.00 1010.8
20260504014603 -17 0.0 0.0 0.00 0.00 0.00 1010.7
20260504014057 -17 0.0 0.0 0.00 0.00 0.00 1010.7
20260504013559 -17 0.0 0.0 0.00 0.00 0.00 1010.7
20260504013100 -17 0.0 0.0 0.00 0.00 0.00 1010.8
20260504012601 -17 0.0 0.0 0.00 0.00 0.00 1010.7
20260504012100 -17 0.0 0.0 0.00 0.00 0.00 1010.7
20260504011600 -17 0.0 0.0 0.00 0.00 0.00 1010.7
20260504011059 -17 0.0 0.0 0.00 0.00 0.00 1010.5
20260504010558 -17 0.0 0.0 0.00 0.00 0.00 1010.5
20260504010059 -17 0.0 0.0 0.00 0.00 0.00 1010.4
20260504005559 -17 0.0 0.0 0.00 0.00 0.00 1010.3
20260504005058 -17 0.0 0.0 0.00 0.00 0.00 1010.3
20260504004559 -17 0.0 0.0 0.00 0.00 0.00 1010.4
20260504004059 -17 0.0 0.0 0.00 0.00 0.00 1010.4
20260504003559 -17 0.0 0.0 0.00 0.00 0.00 1010.4
20260504003058 -17 0.0 0.0 0.00 0.00 0.00 1010.4
20260504002559 -17 0.0 0.0 0.00 0.00 0.00 1010.5
20260504002059 -17 0.0 0.0 0.00 0.00 0.00 1010.4
20260504001559 -17 0.0 0.0 0.00 0.00 0.00 1010.4
20260504001100 -17 0.0 0.0 0.00 0.00 0.00 1010.6
20260504000557 -17 0.0 0.0 0.00 0.00 0.00 1010.6
20260504000107 -17 0.0 0.0 0.00 0.00 0.00 1010.5
20260503235558 -17 0.0 0.0 0.00 0.00 0.00 1010.4
20260503235102 -17 0.0 0.0 0.00 0.00 0.00 1010.2
20260503234628 -17 0.0 0.0 0.00 0.00 0.00 1010.3
20260503234103 9 0.0 0.0 0.00 0.00 0.00 51 1010.3
20260503233559 9 0.0 12.9 0.00 0.00 0.00 51 1010.2
20260503233056 9 0 0.0 12.9 0.00 0.00 0.00 51 1010.1
20260503232558 9 237 0.0 3.2 0.00 0.00 0.00 51 1010.0
20260503232058 9 0 0.0 3.2 0.00 0.00 0.00 52 1010.0
20260503231559 9 0 0.0 3.2 0.00 0.00 0.00 51 1009.9
20260503231057 9 0 0.0 1.6 0.00 0.00 0.00 51 1009.9
20260503230600 9 0 0.0 1.6 0.00 0.00 0.00 50 1009.8
20260503230100 10 0 0.0 1.6 0.00 0.00 0.00 50 1009.9
20260503225559 10 0 0.0 1.6 0.00 0.00 0.00 48 1009.8
20260503225059 10 0 0.0 6.4 0.00 0.00 0.00 48 1009.9
20260503224556 10 0 0.0 4.8 0.00 0.00 0.00 48 1009.8
20260503224058 10 0 0.0 8.0 0.00 0.00 0.00 48 1009.8
20260503223557 10 0 0.0 8.0 0.00 0.00 0.00 49 1009.8
20260503223057 10 0 0.0 4.8 0.00 0.00 0.00 48 1009.9
20260503222558 10 0 0.0 4.8 0.00 0.00 0.00 48 1010.0
20260503222058 10 343 0.0 4.8 0.00 0.00 0.00 48 1010.0
20260503221601 10 0 0.0 3.2 0.00 0.00 0.00 49 1010.1
20260503221059 10 0 0.0 4.8 0.00 0.00 0.00 50 1010.1
20260503220559 10 250 0.0 4.8 0.00 0.00 0.00 48 1010.1
20260503215558 10 0 0.0 6.4 0.00 0.00 0.00 50 1010.0
20260503215058 10 225 0.0 6.4 0.00 0.00 0.00 49 1010.0
20260503214558 10 0 0.0 6.4 0.00 0.00 0.00 50 1010.0
20260503214058 10 0 0.0 6.4 0.00 0.00 0.00 49 1010.0
20260503213557 10 13 0.0 4.8 0.00 0.00 0.00 51 1010.0
20260503213058 10 0 0.0 3.2 0.00 0.00 0.00 50 1009.9
20260503212559 10 0 0.0 1.6 0.00 0.00 0.00 49 1009.9
20260503212059 10 0 0.0 9.7 0.00 0.00 0.00 48 1009.9
20260503211559 10 0 0.0 9.7 0.00 0.00 0.00 49 1009.9
20260503211059 10 245 0.0 1.6 0.00 0.00 0.00 48 1009.9
20260503210559 10 0 0.0 1.6 0.00 0.00 0.00 50 1009.9
20260503210100 10 0 0.0 1.6 0.00 0.00 0.00 49 1009.9
20260503205600 10 0 0.0 4.8 0.00 0.00 0.00 49 1010.0
20260503205058 10 0 0.0 6.4 0.00 0.00 0.00 49 1009.9
20260503204558 9 0 0.0 11.3 0.00 0.00 0.00 50 1009.9
20260503204058 9 0 0.0 11.3 0.00 0.00 0.00 49 1010.0
20260503203558 9 0 0.0 9.7 0.00 0.00 0.00 48 1010.1
20260503203100 9 0 0.0 8.0 0.00 0.00 0.00 49 1010.1